Wetbulb
41.22 42.23 43.51 44.10 43.86 44.01 45.13 46.91 49.03 50.10 52.20 54.18 55.92 56.48 56.97 58.35 59.06 60.10 62.46 63.77 65.54 66.21 65.43 65.57 65.83 65.62 64.57 64.11 63.94 62.58 62.77 61.13 60.45 59.06 58.59 58.74 59.42 59.04 59.70 59.58 59.68 60.84 61.76
37.43 38.62 40.33 40.89 40.78 41.23 41.99 43.35 44.61 47.40 49.23 50.79 53.47 56.70 58.08 58.91 59.19 58.95 59.34 63.04 65.11 64.30 64.80 64.39 64.35 63.89 62.52 62.85 62.69 62.03 60.70 59.40 60.46 58.33 56.51 55.47 56.84 57.67 58.04 58.27 59.61 60.68 61.80
36.77 39.18 40.61 39.96 41.19 41.84 41.24 42.88 43.58 45.01 45.69 48.32 52.28 54.53 57.14 58.63 57.92 58.04 58.77 60.83 62.48 63.17 63.96 64.09 64.19 63.15 62.80 61.90 62.32 61.85 60.62 58.62 60.32 59.28 55.56 51.32 52.09 55.04 56.57 57.87 59.13 59.48 59.57
38.75 40.32 41.74 42.08 41.86 43.06 44.23 45.19 45.60 46.04 46.27 45.80 48.46 50.31 54.09 55.07 56.83 57.32 58.96 60.86 61.02 61.37 62.52 64.08 63.91 63.47 62.69 61.55 62.13 62.34 60.68 60.60 59.02 57.23 56.05 54.75 54.78 50.82 52.11 57.10 56.15 56.12 55.59
38.66 39.96 41.40 42.94 44.97 46.74 46.64 45.66 45.41 45.75 46.18 45.41 45.52 49.13 51.58 54.94 56.58 58.93 59.13 60.63 61.27 60.74 61.15 62.25 60.80 59.82 60.13 61.31 62.07 60.94 59.66 60.28 59.25 56.53 53.25 52.71 52.03 51.09 50.39 51.38 53.01 53.31 53.33
38.09 40.13 43.45 45.31 45.58 46.06 45.90 45.64 45.47 45.90 45.72 45.35 44.42 47.75 49.47 52.37 55.51 56.92 58.72 60.46 61.24 59.28 59.63 60.17 59.50 60.16 61.33 61.67 61.67 61.19 60.16 59.07 58.30 56.34 54.41 53.79 52.34 50.69 50.24 52.31 52.43 50.59 50.79
38.22 40.56 42.26 43.06 43.87 43.65 43.76 45.19 45.35 45.30 45.08 43.94 43.01 47.31 49.50 51.21 55.08 56.40 57.78 59.71 59.61 58.90 57.81 60.46 61.69 61.55 62.17 62.56 61.86 60.54 60.17 59.06 58.21 56.02 54.60 54.78 54.26 53.53 52.06 53.18 52.18 51.02 51.77
39.82 40.52 40.98 41.42 41.33 42.37 42.91 43.25 43.65 43.41 44.56 44.44 43.97 47.65 49.86 51.73 54.63 57.35 59.04 58.35 60.46 59.74 58.88 60.67 62.23 62.67 62.52 61.84 61.32 60.26 59.38 58.07 56.78 55.55 55.66 54.58 54.42 54.28 54.83 54.11 52.76 49.45 48.91
38.84 40.29 40.25 40.69 41.60 41.55 41.31 41.19 41.76 42.83 44.50 44.94 45.62 48.64 50.98 51.91 54.53 56.89 59.04 57.68 58.53 59.63 61.04 61.39 59.93 62.19 62.25 61.28 60.38 58.80 57.86 57.38 56.39 54.98 54.47 54.45 53.50 53.97 53.56 55.17 53.44 51.31 47.94
37.88 37.90 38.19 39.13 41.26 41.34 41.24 41.70 42.34 42.22 44.95 46.81 47.53 48.21 49.52 52.11 55.39 55.77 58.09 57.39 57.83 59.48 59.77 60.02 58.52 61.61 60.63 59.35 58.86 58.05 57.80 56.73 56.16 55.78 54.69 53.71 53.09 52.98 53.39 53.53 52.79 50.80 49.31
35.81 36.31 36.90 38.58 40.38 41.33 40.23 41.13 42.36 43.08 44.09 44.98 45.36 46.27 47.24 50.60 53.21 53.71 57.29 57.17 57.77 57.56 57.65 58.96 58.28 60.01 59.85 59.38 58.43 57.66 57.28 56.56 55.61 54.88 54.27 52.87 53.12 51.98 51.53 51.42 50.78 50.65 49.40
35.76 36.63 36.44 36.93 39.37 40.64 40.42 40.36 41.67 41.80 42.41 43.23 43.26 43.81 45.85 48.61 51.98 51.82 52.79 57.27 57.60 56.34 56.84 59.74 59.49 59.64 59.06 58.74 57.91 57.12 57.29 55.89 54.56 54.39 54.22 53.22 52.31 50.10 49.78 49.78 49.69 48.97 49.00
34.74 35.51 35.31 35.07 36.99 39.28 39.75 39.17 39.71 40.47 41.69 42.13 41.97 42.36 43.50 45.80 48.79 51.70 52.14 53.55 58.09 55.65 57.01 59.20 59.23 59.34 58.71 58.50 58.10 57.53 56.93 55.84 55.17 55.03 53.93 52.98 51.01 48.81 48.37 48.96 48.45 47.95 47.63
34.25 34.60 34.37 34.28 35.99 38.77 39.55 38.65 38.48 39.58 40.74 41.22 41.21 41.53 42.60 44.94 49.06 52.35 53.59 54.81 58.21 56.34 57.34 58.87 58.68 58.88 58.69 58.28 57.65 57.43 56.93 56.66 56.21 55.29 54.19 52.83 50.58 48.48 47.76 48.04 47.34 46.88 45.91
34.44 34.35 35.01 34.43 35.14 37.19 39.08 38.38 38.45 39.28 40.33 40.23 40.19 41.22 43.22 46.49 49.27 50.48 53.13 55.73 57.50 56.54 58.71 58.50 58.32 58.23 57.89 57.74 57.34 56.85 55.90 54.67 53.51 52.96 52.22 51.71 51.78 51.78 50.20 47.66 46.80 45.75 44.00
34.47 35.28 35.73 36.13 36.14 37.48 38.52 39.06 38.29 38.97 39.88 39.46 39.47 41.40 42.58 45.12 47.17 49.26 51.30 53.46 57.07 57.30 58.60 57.94 57.67 57.02 57.02 56.80 56.16 55.30 54.16 53.55 52.85 51.93 52.13 52.37 52.55 51.95 51.71 50.35 47.82 43.30 38.85
33.85 34.69 35.46 35.47 35.73 37.38 39.12 37.96 38.44 39.37 38.99 39.38 39.42 40.70 42.03 43.48 45.75 46.84 49.49 51.83 56.64 57.50 57.78 57.16 56.53 55.55 55.80 56.50 56.00 54.78 52.83 51.35 49.93 48.66 47.98 47.48 47.70 46.98 45.53 47.25 46.65 45.49 44.26
33.92 34.56 35.40 35.75 35.83 38.26 38.41 38.57 39.04 38.54 38.62 39.08 39.04 40.21 41.17 42.92 44.52 45.95 47.37 52.55 55.70 57.27 56.36 55.33 55.11 54.80 54.82 55.22 54.05 51.63 47.37 45.40 44.20 42.75 41.41 39.75 38.36 38.32 36.56 35.20 34.38 34.01 33.32
34.26 34.60 35.24 35.57 35.53 37.07 37.78 37.84 37.87 37.98 38.02 38.83 39.28 40.05 41.18 42.20 44.20 44.70 46.63 52.87 56.17 54.81 54.56 54.08 53.14 52.21 51.35 52.09 49.49 46.16 43.59 42.16 41.06 40.36 40.21 39.45 38.58 43.23 42.36 36.90 36.03 35.79 37.38
35.62 36.22 37.58 37.49 36.97 37.61 37.67 36.95 37.21 37.38 37.22 39.00 40.24 41.01 41.55 42.35 43.66 44.68 48.39 54.02 54.18 53.42 52.77 51.77 51.51 50.90 48.06 49.78 48.61 45.66 43.07 41.04 40.26 40.55 40.51 43.50 41.33 43.48 40.91 33.32 31.25 27.85 25.57
35.83 37.82 37.30 36.35 36.68 37.34 37.48 36.82 36.80 36.34 38.78 40.32 40.88 41.40 41.56 42.26 43.88 45.32 52.37 51.28 50.60 50.81 49.97 49.25 48.65 47.38 47.34 47.94 48.30 47.29 43.27 41.17 40.00 39.35 39.33 40.39 42.87 41.31 38.97 35.10 29.02 28.08 30.65
35.36 36.87 35.80 36.10 37.26 37.70 36.97 36.66 36.23 38.88 40.29 41.42 40.84 40.93 41.06 42.98 45.12 47.47 49.77 49.26 48.26 47.02 46.61 46.16 45.84 46.48 46.71 48.10 47.62 46.52 44.71 43.38 38.78 37.69 38.18 39.38 40.93 39.67 38.88 37.02 39.11 37.61 32.82
34.22 35.91 35.80 36.81 37.59 37.60 37.55 37.04 38.75 39.96 41.28 40.89 40.16 40.69 41.46 43.25 44.85 48.97 48.37 47.47 47.18 45.87 45.16 44.42 43.81 43.88 44.84 45.34 46.82 45.80 44.55 43.18 37.91 37.36 39.69 41.39 41.39 41.14 39.85 39.83 38.50 34.24 27.63
33.94 35.85 36.25 36.06 36.27 38.13 39.71 40.32 40.91 41.49 41.02 40.06 40.51 40.27 41.51 43.51 48.59 49.13 48.83 47.64 46.43 45.25 44.35 43.29 42.52 42.82 42.77 42.14 42.05 40.95 40.45 42.57 40.79 42.22 39.68 39.32 38.37 38.55 37.51 33.24 30.39 27.65 26.78
35.77 37.23 37.06 37.06 37.41 39.60 40.16 40.63 40.68 40.91 40.14 40.58 40.69 40.59 42.16 43.99 47.81 48.62 48.46 47.70 47.46 46.64 44.54 43.47 42.81 41.24 40.29 40.78 41.43 40.43 39.44 38.77 39.40 37.01 33.41 30.20 28.82 27.29 27.29 27.64 27.52 27.15 26.91
37.08 37.08 37.59 38.14 38.85 39.30 39.46 40.11 40.80 40.62 40.22 39.88 40.30 40.69 42.30 47.13 46.77 46.71 46.84 49.32 48.72 48.02 46.91 46.36 44.45 43.21 44.04 44.60 43.82 43.13 42.31 41.61 40.19 32.75 28.63 26.67 26.70 26.53 26.59 26.42 26.43 27.17 28.44
MSLP
1015.08 1014.68 1014.37 1014.10 1013.75 1013.25 1012.76 1012.55 1012.13 1011.69 1011.16 1010.58 1010.22 1009.65 1009.41 1008.80 1008.36 1007.90 1007.41 1007.01 1006.51 1006.66 1007.07 1007.67 1007.88 1008.43 1008.46 1008.63 1009.50 1009.99 1010.72 1011.49 1011.85 1012.24 1013.12 1013.43 1013.44 1013.63 1013.95 1014.21 1014.01 1014.35 1014.48
1015.85 1015.58 1015.18 1014.79 1014.49 1014.21 1013.63 1013.05 1012.64 1012.26 1011.71 1010.91 1010.41 1010.00 1009.36 1008.86 1008.46 1007.93 1007.36 1006.80 1006.36 1006.29 1006.29 1006.63 1007.17 1007.91 1008.11 1008.54 1008.79 1009.25 1010.42 1010.76 1011.64 1012.00 1012.39 1013.47 1013.98 1014.32 1014.37 1014.51 1014.37 1014.43 1014.81
1016.81 1016.31 1015.78 1015.45 1015.06 1014.65 1014.26 1013.82 1013.20 1012.55 1012.02 1011.21 1010.44 1009.60 1008.99 1008.81 1008.22 1007.82 1007.19 1006.63 1006.32 1005.92 1005.71 1005.89 1006.14 1006.46 1007.12 1007.73 1008.11 1008.77 1009.41 1010.33 1011.29 1011.65 1011.58 1013.13 1013.71 1014.45 1014.86 1014.94 1014.86 1015.00 1015.38
1017.10 1016.71 1016.23 1015.72 1015.40 1014.99 1014.56 1014.05 1013.43 1012.88 1012.09 1011.40 1011.06 1010.46 1009.72 1008.72 1008.03 1007.85 1007.18 1006.34 1005.92 1005.55 1005.27 1005.32 1005.62 1005.73 1006.24 1006.98 1007.59 1008.44 1009.00 1009.51 1010.79 1010.65 1011.28 1011.47 1012.08 1014.00 1014.89 1015.35 1015.47 1015.76 1016.02
1017.47 1017.03 1016.54 1016.06 1015.59 1015.04 1014.33 1013.75 1013.30 1012.75 1012.17 1011.50 1010.55 1010.90 1009.79 1009.09 1007.95 1007.35 1006.69 1005.93 1005.36 1005.21 1005.02 1004.90 1005.19 1005.59 1005.92 1006.51 1007.24 1008.09 1008.60 1008.77 1010.10 1010.44 1011.30 1011.91 1012.37 1013.02 1014.02 1015.27 1015.98 1016.31 1016.84
1017.65 1017.08 1016.49 1015.83 1015.22 1014.69 1014.25 1013.60 1013.17 1012.23 1012.68 1011.71 1011.02 1010.85 1009.69 1009.26 1007.72 1007.16 1006.42 1005.61 1005.02 1004.89 1004.84 1004.86 1005.00 1005.39 1005.84 1006.38 1006.99 1007.32 1007.80 1008.96 1009.48 1009.63 1010.43 1011.17 1012.15 1012.94 1013.52 1014.79 1015.83 1016.74 1017.54
1017.55 1017.00 1016.42 1015.82 1015.41 1014.73 1014.12 1013.75 1013.27 1012.75 1012.31 1011.61 1010.59 1010.44 1009.81 1008.65 1008.10 1007.11 1006.12 1005.56 1004.81 1004.54 1004.52 1004.67 1004.93 1005.34 1005.83 1006.44 1006.90 1007.43 1007.73 1009.08 1008.86 1009.50 1010.27 1010.77 1011.37 1011.97 1012.92 1013.92 1015.50 1016.53 1017.44
1017.71 1017.08 1016.46 1016.00 1015.23 1014.86 1014.42 1014.03 1013.57 1012.56 1011.99 1010.53 1010.36 1010.49 1009.48 1008.69 1008.18 1006.87 1005.83 1005.38 1004.50 1004.00 1004.22 1004.28 1004.47 1004.80 1005.60 1005.93 1006.90 1008.40 1008.34 1008.45 1008.82 1009.52 1010.12 1010.90 1011.46 1011.59 1012.29 1013.38 1014.70 1016.50 1017.47
1017.31 1016.83 1016.38 1015.95 1015.41 1015.04 1014.73 1014.39 1013.75 1012.98 1012.09 1011.73 1011.12 1010.49 1009.79 1008.52 1007.87 1006.46 1005.53 1005.15 1004.33 1003.87 1003.97 1004.19 1004.29 1004.59 1004.78 1005.33 1005.68 1007.59 1008.64 1008.54 1009.00 1009.59 1010.50 1011.19 1011.64 1011.75 1012.53 1013.10 1014.31 1015.10 1017.18
1017.09 1016.84 1016.56 1016.01 1015.55 1015.16 1014.85 1014.22 1013.76 1013.08 1012.34 1011.71 1011.10 1010.33 1009.68 1008.63 1007.43 1006.51 1005.55 1005.07 1004.23 1003.91 1003.96 1004.11 1004.52 1004.81 1005.27 1005.78 1005.75 1007.52 1008.50 1008.70 1009.41 1009.96 1010.80 1011.53 1011.80 1012.28 1012.81 1013.56 1014.20 1014.69 1015.87
1016.93 1016.83 1016.49 1015.94 1015.62 1015.27 1014.78 1014.20 1013.76 1012.99 1012.43 1011.60 1011.12 1010.48 1009.69 1008.55 1007.57 1006.84 1005.74 1004.83 1004.23 1003.95 1004.13 1004.46 1004.73 1004.99 1005.25 1005.88 1006.64 1007.32 1008.50 1008.91 1009.40 1010.42 1011.00 1011.73 1011.91 1012.66 1013.33 1013.95 1014.50 1015.40 1015.99
1016.79 1016.77 1016.34 1015.85 1015.59 1015.40 1014.89 1014.52 1014.00 1013.36 1012.41 1011.83 1011.25 1010.63 1009.78 1008.78 1007.71 1006.94 1006.03 1004.98 1004.25 1004.18 1004.29 1004.50 1004.76 1004.95 1005.31 1006.11 1006.64 1007.41 1008.55 1008.94 1009.88 1010.91 1011.40 1012.03 1012.55 1013.19 1014.00 1014.67 1015.32 1016.12 1016.82
1016.55 1016.48 1016.34 1015.99 1015.61 1015.40 1014.97 1014.45 1013.89 1013.23 1012.82 1012.08 1011.17 1010.45 1009.75 1008.79 1007.79 1006.94 1006.16 1005.01 1004.33 1004.31 1004.47 1004.45 1004.60 1004.89 1005.44 1006.04 1006.64 1007.63 1008.78 1009.44 1010.25 1011.18 1011.85 1012.58 1012.93 1013.77 1014.58 1015.45 1016.04 1017.05 1017.64
1016.44 1016.44 1016.35 1015.99 1015.51 1015.09 1014.78 1014.37 1013.88 1013.46 1012.95 1012.20 1011.46 1010.78 1009.63 1008.63 1007.65 1006.65 1005.69 1004.78 1004.25 1004.20 1004.58 1004.59 1004.58 1004.59 1005.03 1006.10 1007.10 1008.12 1009.08 1009.79 1010.81 1011.68 1012.38 1012.93 1013.38 1014.43 1015.36 1016.11 1016.90 1017.65 1018.45
1016.54 1016.42 1016.20 1015.86 1015.39 1014.81 1014.37 1014.08 1013.81 1013.62 1012.96 1012.30 1011.55 1010.93 1009.94 1008.71 1007.26 1006.19 1005.40 1004.57 1003.97 1004.05 1004.38 1004.60 1004.83 1005.00 1005.29 1006.45 1007.29 1008.53 1009.40 1010.35 1011.46 1012.36 1013.06 1013.61 1014.30 1015.32 1015.93 1016.66 1017.56 1018.08 1018.97
1016.64 1016.23 1015.91 1015.47 1015.10 1014.64 1014.46 1014.13 1013.94 1013.44 1012.99 1012.49 1011.70 1010.68 1009.41 1008.52 1006.96 1006.01 1005.23 1004.42 1003.68 1003.99 1004.29 1004.54 1004.92 1005.65 1006.37 1007.12 1008.06 1008.89 1009.98 1011.17 1012.13 1013.07 1013.76 1014.63 1015.33 1016.13 1016.70 1017.48 1018.12 1018.47 1019.56
1016.50 1016.03 1015.66 1015.18 1014.68 1014.39 1014.19 1014.06 1013.66 1013.11 1012.56 1012.01 1011.22 1010.32 1009.40 1008.35 1007.22 1006.27 1005.42 1004.55 1003.49 1003.77 1004.13 1004.67 1005.43 1006.22 1006.81 1007.79 1008.57 1009.68 1010.82 1012.04 1012.99 1013.95 1014.73 1015.60 1016.59 1017.16 1017.66 1018.57 1019.22 1019.85 1020.52
1016.28 1015.71 1015.15 1014.70 1014.24 1013.87 1013.81 1013.53 1013.13 1012.59 1012.19 1011.57 1010.95 1010.15 1009.17 1008.28 1007.38 1006.24 1005.27 1004.01 1003.63 1003.45 1004.00 1004.77 1005.70 1006.59 1007.78 1008.41 1009.51 1010.70 1011.91 1013.17 1014.26 1015.44 1015.98 1016.79 1017.80 1018.37 1018.97 1019.71 1020.35 1021.56 1021.86
1015.99 1015.45 1014.98 1014.57 1014.08 1013.92 1013.68 1013.42 1012.92 1012.36 1011.93 1011.25 1010.62 1010.02 1009.03 1008.16 1007.14 1006.41 1005.13 1003.50 1002.53 1003.51 1004.31 1004.86 1006.20 1007.37 1008.66 1009.36 1010.37 1011.47 1012.97 1014.45 1015.59 1016.52 1017.35 1017.67 1018.28 1019.23 1019.96 1020.29 1021.52 1022.47 1022.75
1015.65 1015.19 1014.76 1014.32 1013.97 1013.61 1013.42 1013.20 1012.75 1012.02 1011.48 1010.91 1010.33 1010.00 1009.16 1008.13 1007.29 1006.04 1004.13 1003.15 1002.72 1004.22 1005.14 1006.06 1007.20 1008.41 1009.70 1010.17 1011.25 1012.08 1013.49 1015.17 1016.24 1017.75 1018.15 1018.89 1019.44 1020.13 1021.07 1021.65 1022.14 1023.46 1024.48
1015.49 1014.91 1014.53 1014.20 1013.69 1013.19 1012.94 1012.69 1012.35 1011.87 1011.05 1010.47 1010.01 1009.63 1008.93 1008.00 1007.25 1005.86 1004.43 1003.81 1004.55 1005.17 1005.59 1007.03 1008.58 1009.70 1010.57 1011.61 1012.26 1012.95 1014.09 1015.12 1016.94 1018.02 1019.05 1019.96 1020.88 1021.10 1022.28 1022.90 1023.15 1023.66 1024.99
1015.16 1014.64 1014.34 1013.91 1013.24 1012.73 1012.42 1011.95 1011.66 1011.23 1010.58 1010.09 1009.76 1009.23 1008.65 1007.74 1006.90 1005.88 1005.09 1005.21 1005.46 1006.18 1007.32 1008.49 1010.00 1011.17 1011.90 1012.54 1013.24 1014.27 1014.94 1016.36 1016.85 1018.59 1019.77 1020.59 1021.54 1022.64 1023.09 1023.34 1023.47 1024.48 1025.56
1015.02 1014.46 1013.99 1013.40 1012.68 1012.22 1011.74 1010.92 1010.57 1010.42 1009.88 1009.66 1009.56 1009.04 1008.60 1007.98 1006.77 1006.14 1005.71 1006.21 1006.75 1007.36 1008.70 1009.72 1010.96 1012.14 1013.03 1013.93 1014.40 1015.18 1016.19 1017.28 1017.99 1019.47 1020.49 1021.25 1022.33 1023.34 1023.42 1024.00 1024.55 1025.63 1026.43
1014.86 1014.21 1013.60 1012.95 1012.23 1011.60 1010.95 1010.27 1009.67 1009.65 1009.24 1009.06 1009.36 1008.89 1008.35 1007.64 1006.79 1006.59 1006.48 1006.55 1007.48 1008.31 1009.49 1010.43 1011.62 1012.79 1013.91 1014.82 1015.58 1016.40 1017.16 1018.42 1019.24 1020.42 1021.17 1022.61 1023.55 1023.98 1024.49 1025.52 1026.29 1026.85 1026.78
1014.54 1013.92 1013.30 1012.49 1011.42 1010.63 1009.92 1009.41 1008.76 1008.61 1008.40 1008.42 1008.69 1008.46 1008.03 1007.61 1007.06 1007.00 1006.87 1007.26 1008.09 1008.37 1009.52 1010.91 1011.85 1012.81 1014.33 1015.43 1016.02 1016.49 1017.79 1019.20 1020.03 1021.21 1022.27 1023.84 1024.66 1025.41 1026.23 1026.74 1027.14 1027.28 1027.26
1014.26 1013.48 1012.71 1011.61 1010.61 1009.55 1008.39 1007.59 1007.26 1007.41 1007.41 1007.72 1008.04 1007.96 1007.79 1007.38 1007.46 1007.52 1007.80 1008.38 1008.99 1009.88 1010.56 1011.65 1012.29 1013.79 1014.46 1015.84 1016.70 1017.63 1018.88 1019.87 1021.20 1021.84 1023.48 1024.78 1025.69 1026.47 1026.99 1027.45 1027.71 1027.78 1027.96
Wind_Speed
6 7 8 9 10 12 12 10 10 10 8 7 5 3 6 7 5 6 9 9 8 8 10 7 7 6 10 9 9 3 5 2 5 5 5 4 4 4 3 1 2 2 2
10 11 10 11 10 10 12 13 11 8 8 7 6 3 5 4 7 7 8 10 10 7 7 8 9 11 5 7 8 6 3 3 6 4 3 3 3 4 4 2 4 6 4
8 9 10 8 8 10 9 12 14 14 8 8 8 7 4 3 3 8 9 5 7 9 10 10 9 10 8 8 8 8 8 4 7 7 4 3 3 3 3 5 6 7 5
6 5 7 8 7 7 7 8 11 13 13 10 7 7 7 9 7 6 9 10 9 8 9 9 9 9 7 8 7 6 6 7 10 2 2 2 6 4 3 3 5 6 7
7 8 7 7 8 8 8 6 8 13 13 12 11 7 9 9 8 7 9 11 7 8 8 8 8 7 6 6 8 8 7 4 7 4 3 2 4 3 5 4 3 5 5
8 7 6 7 9 9 9 6 8 9 13 9 9 11 9 11 10 10 9 7 5 4 7 5 5 5 5 8 8 8 10 6 6 4 4 5 5 4 4 5 4 4 4
6 6 7 10 12 12 12 10 8 9 9 9 9 12 13 11 13 12 10 9 5 4 6 7 8 6 5 5 5 5 9 9 8 6 4 3 4 4 4 6 4 3 2
6 5 6 7 7 11 12 11 12 10 11 12 14 12 13 8 9 11 9 8 7 6 6 7 7 8 9 10 8 1 3 5 6 8 5 4 3 4 6 6 9 4 3
7 7 8 7 9 8 9 9 9 8 9 10 8 9 11 11 11 14 9 7 6 3 8 9 8 8 9 10 13 7 3 6 6 7 6 5 3 5 5 8 8 6 4
7 6 6 7 6 7 7 7 8 7 8 10 10 10 12 12 13 13 10 7 4 5 5 7 6 7 11 12 13 7 5 8 6 7 9 6 5 6 5 6 4 4 5
7 6 6 6 5 6 6 7 9 11 11 9 11 12 13 13 12 10 12 6 3 2 1 2 5 8 10 10 10 11 9 11 11 8 10 8 8 7 6 5 4 6 6
6 6 7 6 5 6 6 7 8 9 11 11 11 12 12 12 12 11 11 11 5 3 4 1 6 11 10 11 12 12 10 13 13 11 12 10 7 10 7 6 8 7 6
8 7 6 7 6 4 5 6 7 9 11 11 11 13 13 12 13 12 11 10 6 3 3 4 8 11 12 12 13 13 11 12 13 13 13 10 11 9 7 8 9 8 8
7 6 7 7 7 6 5 5 6 6 10 10 11 12 12 14 14 12 10 8 7 6 4 4 7 9 16 14 14 14 14 14 12 12 10 9 11 10 9 9 9 9 9
6 7 7 7 7 7 6 5 6 6 8 10 11 13 12 13 15 13 9 10 7 6 5 7 9 10 13 11 15 15 15 16 14 12 11 11 15 16 13 8 8 10 8
8 7 7 8 8 7 6 5 6 7 7 9 10 12 12 13 14 14 13 10 7 8 8 10 10 10 8 23 23 19 15 15 15 14 14 13 19 18 22 20 16 10 8
7 8 8 8 8 7 6 6 6 7 7 11 10 12 13 13 13 15 15 7 7 12 11 12 13 13 16 28 28 25 15 15 15 14 14 14 12 17 16 23 23 20 16
7 9 8 8 7 4 4 6 6 7 7 11 10 11 13 14 13 15 15 11 7 13 11 15 16 15 16 29 30 28 17 15 15 13 14 15 14 14 15 16 16 12 11
8 7 6 6 5 4 5 6 8 8 7 11 11 11 13 14 14 14 16 13 12 13 12 17 18 18 18 31 31 24 17 16 15 13 12 13 15 24 24 17 15 12 11
7 7 7 4 5 6 6 6 7 9 10 11 10 11 12 12 13 17 15 3 12 13 12 17 17 23 18 29 30 23 14 16 13 13 14 20 16 24 21 15 14 13 6
8 8 7 7 7 7 6 8 7 7 11 11 8 11 11 12 12 14 4 11 13 13 16 17 15 16 18 19 27 26 15 14 13 11 10 10 21 23 21 17 10 12 11
9 9 7 7 9 9 6 9 8 9 10 8 9 10 10 10 11 12 7 12 15 15 17 18 14 12 14 24 26 26 25 22 15 12 10 13 23 24 24 16 26 24 15
9 9 8 11 11 9 9 14 12 9 11 8 8 9 9 10 11 1 10 12 14 13 12 14 13 11 11 12 29 30 29 26 16 11 19 27 25 24 21 24 23 16 6
9 8 10 12 13 12 14 15 15 12 11 10 7 8 8 9 3 3 6 12 11 12 12 13 13 12 12 12 12 13 16 26 18 25 18 17 16 17 17 12 9 5 4
8 9 11 13 18 18 16 15 15 12 11 9 6 6 6 7 4 4 6 10 9 14 14 12 13 14 12 11 18 18 14 12 17 16 11 7 7 9 7 6 5 5 5
10 11 13 19 19 19 19 18 15 12 10 7 5 4 5 4 7 7 10 17 18 19 22 21 16 10 23 28 27 28 28 28 26 12 10 8 7 8 7 7 6 4 8
Wind_Direction
17 26 21 12 16 18 15 9 6 352 351 346 340 359 339 316 294 287 279 265 247 214 183 199 178 161 214 183 179 150 159 113 131 117 98 71 69 84 89 103 108 138 144
24 10 11 14 13 4 2 1 2 355 336 349 333 305 326 316 300 294 274 263 252 214 193 191 188 187 162 165 167 143 134 130 175 174 132 131 72 51 52 52 68 62 55
18 7 7 4 1 7 356 358 350 345 337 343 331 332 312 283 307 317 309 287 252 213 206 189 180 171 168 172 169 175 160 160 184 221 137 127 151 122 35 60 57 57 53
353 349 350 349 350 345 341 343 349 339 337 340 331 326 314 317 319 297 289 289 247 223 208 182 178 175 168 170 170 176 168 157 192 179 106 77 135 150 145 65 59 60 51
342 338 331 323 320 326 329 349 349 341 334 332 348 315 312 302 309 296 282 282 252 221 209 184 176 164 158 156 147 146 155 146 184 180 142 88 69 83 128 140 113 68 38
335 336 324 326 334 329 326 340 352 352 319 331 330 303 312 298 316 305 295 293 256 212 205 188 164 161 166 162 170 149 133 176 190 125 142 144 151 158 128 120 100 108 47
331 334 332 336 333 330 326 325 328 329 312 309 337 319 304 307 303 297 295 298 248 218 195 177 174 189 149 138 118 143 153 195 157 146 142 129 136 129 111 118 120 124 109
308 312 313 315 330 332 329 324 311 318 324 346 344 314 308 304 295 293 286 286 258 233 204 177 157 158 145 127 114 270 160 166 137 134 125 119 128 118 134 138 139 127 92
301 325 331 329 333 334 329 320 319 322 336 325 316 307 303 320 298 312 289 284 274 247 199 174 166 175 158 158 143 133 186 144 125 109 112 112 112 103 114 134 152 127 139
299 313 319 326 329 330 316 328 329 329 329 330 332 326 315 311 318 320 291 281 291 238 185 168 152 164 144 146 131 120 149 130 127 110 107 102 92 89 99 124 112 104 126
269 285 301 303 315 316 336 329 328 338 334 337 327 328 317 314 321 314 308 279 292 356 64 181 176 148 142 139 141 135 145 133 111 104 107 99 102 95 90 88 88 83 93
275 281 299 312 332 337 329 320 329 332 334 328 326 318 311 315 312 314 304 303 285 342 10 186 175 159 150 141 131 133 139 126 116 114 109 103 97 83 75 77 84 93 98
277 269 295 307 311 308 307 316 322 326 322 324 324 319 314 315 310 308 284 295 252 190 277 215 168 170 154 138 138 131 131 121 115 117 116 114 105 90 87 93 95 99 106
279 279 285 276 289 285 277 300 315 311 313 327 322 313 315 313 303 314 294 275 236 180 203 177 146 145 132 127 127 128 123 111 108 110 102 96 93 99 102 100 106 114 110
302 296 280 267 268 279 283 311 319 302 311 325 324 311 308 303 311 334 304 323 195 171 166 147 129 115 115 127 123 121 113 107 100 91 88 89 99 103 104 108 114 111 113
304 303 306 290 273 268 278 295 293 300 303 319 314 308 321 317 326 327 323 328 203 171 152 131 124 120 126 123 119 114 107 106 103 99 94 97 100 106 107 103 100 104 122
301 299 295 283 267 263 264 285 288 295 307 324 319 317 319 322 327 323 321 294 229 171 162 134 128 123 120 120 111 107 104 104 102 103 106 98 92 94 93 91 84 82 87
305 303 293 298 285 258 290 290 298 297 312 322 317 321 323 324 326 321 319 275 262 156 146 131 122 119 119 113 109 105 100 95 92 94 98 102 99 98 102 94 83 76 68
281 277 287 288 293 259 280 295 298 297 307 316 316 323 320 321 323 315 307 291 156 125 131 118 116 116 114 115 113 106 100 96 94 94 97 104 108 118 112 103 102 89 84
294 296 309 296 289 290 287 285 289 296 296 303 309 317 314 316 318 303 322 135 109 118 112 112 115 118 118 118 119 115 111 108 103 97 100 104 116 114 110 107 111 99 73
300 305 310 294 284 281 281 283 277 280 281 286 307 309 311 315 314 310 273 87 89 102 107 98 102 110 116 117 119 119 118 116 111 109 103 107 115 112 112 108 107 111 121
309 308 304 293 289 290 284 272 265 284 282 291 305 299 310 311 311 311 116 100 97 92 99 100 98 103 107 115 115 114 110 116 113 111 109 117 115 115 118 113 114 114 105
301 301 296 301 300 295 283 290 287 287 291 288 302 302 307 303 301 246 117 105 110 105 106 107 105 105 104 108 114 112 112 109 102 109 121 119 121 122 112 114 114 105 99
307 302 302 298 294 296 296 290 292 288 284 279 287 288 290 303 300 111 133 115 118 113 114 111 112 112 110 112 114 110 109 114 115 121 111 111 113 112 108 98 92 87 83
305 307 306 300 302 305 294 285 280 273 267 265 266 269 283 288 85 92 110 118 114 133 127 125 125 127 125 129 129 128 122 124 120 115 99 96 95 96 96 89 84 80 77
313 308 305 310 308 301 293 285 267 242 237 234 234 246 272 118 102 97 81 83 107 115 115 123 128 115 124 130 126 123 123 125 126 106 112 109 110 117 120 118 110 86 103